Home > Time Zones > World Clock > Weather > Russia > Perm > Past weeks

Flag for Russia Weather past 2 weeks in Perm, Russia

Now
45 °F

Clear.


Feels Like: 41 °F
Forecast: 40 / 60 °F
Wind: 6 mph from Northwest

Location: Perm'/Bolshoe Savino

Current Time: Jul 4, 2015 at 1:58:45 AM

Latest Report: Jul 4, 2015 at 1:30 AM


Visibility: 10 mi

Pressure: 29.86 "Hg

Humidity: 81%

Dew point: 39 °F

Location of PermLocation

Historic Weather in Perm — Graph

°F

Perm temperature yesterday

Maximum temperature yesterday: 59 °F (at 5:30 PM)
Minimum temperature yesterday: 46 °F (at 11:30 PM)
Average temperature yesterday: 54 °F

Past Weeks' High & Low Weather Summary

 TemperatureHumidityPressure
High93 °F (Jun 22, 1:30 PM)100% (Jun 21, 4:30 AM)30.09 "Hg (Jun 21, 4:30 AM)
Low46 °F (Jul 3, 11:30 PM)26% (Jun 22, 3:30 PM)29.65 "Hg (Jul 2, 5:00 AM)
Average69 °F75%29.88 "Hg
* Reported Jun 19 1:00 AM — Jul 4 1:00 AM, Perm, Weather by CustomWeather, © 2015

Note: Actual official high and low records may vary slightly from our data, if they occured in-between our weather recording intervals... More about our weather records

Advertising

Perm weather history for previous 24 hours

 ConditionsComfort  
Time TempWeatherWind HumidityBarometerVisibility
1:00 AM
Sat, Jul 4
46 °FClear.6 mph82%29.86 "Hg10 mi
12:30 AM46 °FClear.6 mph82%29.86 "Hg10 mi
12:00 AM46 °FSunny.6 mph87%29.86 "Hg10 mi
11:30 PM
Fri, Jul 3
46 °FSunny.3 mph87%29.86 "Hg10 mi
11:00 PM50 °FSunny.6 mph71%29.86 "Hg10 mi
10:30 PM52 °FPartly sunny.6 mph67%29.86 "HgN/A
10:00 PM54 °FBroken clouds.6 mph63%29.86 "HgN/A
9:30 PM54 °FBroken clouds.6 mph63%29.86 "HgN/A
9:00 PM54 °FBroken clouds.8 mph63%29.86 "HgN/A
8:30 PM55 °FBroken clouds.6 mph55%29.83 "HgN/A
8:00 PM57 °FBroken clouds.8 mph55%29.83 "HgN/A
7:30 PM57 °FBroken clouds.10 mph51%29.83 "HgN/A
7:00 PM59 °FBroken clouds.8 mph51%29.83 "HgN/A
6:30 PM57 °FPartly sunny.10 mph51%29.83 "HgN/A
6:00 PM57 °FPartly sunny.8 mph59%29.83 "HgN/A
5:30 PM59 °FPartly sunny.8 mph63%29.83 "HgN/A
5:00 PM57 °FMostly cloudy.6 mph67%29.83 "HgN/A
4:30 PM55 °FMostly cloudy.8 mph77%29.83 "HgN/A
4:00 PM55 °FMostly cloudy.8 mph77%29.83 "HgN/A
3:30 PM55 °FMostly cloudy.8 mph77%29.83 "HgN/A
3:00 PM54 °FMostly cloudy.8 mph82%29.83 "HgN/A
2:30 PM55 °FMostly cloudy.10 mph82%29.83 "HgN/A
2:00 PM54 °FMostly cloudy.6 mph94%29.83 "HgN/A
1:30 PM54 °FSprinkles. Mostly cloudy.8 mph94%29.83 "Hg4 mi
1:00 PM54 °FSprinkles. Mostly cloudy.8 mph94%29.83 "HgN/A
12:30 PM54 °FLow clouds.10 mph94%29.80 "HgN/A
12:00 PM55 °FOvercast.10 mph94%29.80 "HgN/A
11:30 AM55 °FLow clouds.8 mph94%29.80 "HgN/A
11:00 AM55 °FSprinkles. Mostly cloudy.8 mph94%29.80 "HgN/A
10:30 AM55 °FSprinkles. Mostly cloudy.8 mph100%29.77 "HgN/A
10:00 AM55 °FRain showers. Mostly cloudy.6 mph100%29.77 "Hg3 mi
9:30 AM55 °FSprinkles. Mostly cloudy.6 mph100%29.77 "HgN/A
8:30 AM55 °FMostly cloudy.8 mph100%29.77 "HgN/A
7:30 AM57 °FPartly sunny.3 mph94%29.77 "HgN/A
7:00 AM55 °FPartly sunny.1 mph94%29.77 "HgN/A
6:30 AM55 °FScattered clouds.3 mph94%29.77 "HgN/A
6:00 AM54 °FClear.1 mph94%29.77 "Hg10 mi
5:30 AM50 °FClear.3 mph94%29.77 "Hg10 mi
5:00 AM48 °FPassing clouds.No wind94%29.77 "HgN/A
4:30 AM48 °FPassing clouds.3 mph94%29.77 "HgN/A
4:00 AM48 °FClear.No wind100%29.77 "Hg6 mi
3:30 AM50 °FClear.3 mph100%29.77 "Hg10 mi
3:00 AM52 °FClear.3 mph94%29.77 "Hg10 mi
2:30 AM54 °FPassing clouds.No wind94%29.77 "HgN/A
2:00 AM52 °FSprinkles. Partly cloudy.6 mph94%29.77 "HgN/A
1:30 AM52 °FClear.3 mph94%29.77 "Hg10 mi
1:00 AM52 °FClear.6 mph94%29.77 "Hg10 mi
Weather by CustomWeather, © 2015

See weather overviewHow to use our weather pages